Terminal Aerodrome Forecast
Issued by NWS

Home | Current Version | Previous Version | Text Only | Print | Product List | Glossary On
Versions: 1 2 3 4 5 6 7 8 9 10 11 12 13
000
FTUS42 KMHX 202300
TAFOAJ
TAF
KOAJ 202321Z 2100/2124 00000KT 4SM BR BKN050
      TEMPO 2104/2108 2SM BR OVC020
     FM211200 03006KT P6SM OVC050
      AMD LTD TO CLD VIS AND WIND=

USA.gov is the U.S. government's official web portal to all federal, state and local government web resources and services.